﻿Station,date_time,longitude,latitude,depth,sw_sal,sw_sal_result_value_qualifier,sea_water_temperature,sea_water_temperature_result_value_qualifier,sea_water_pressure,sea_water_pressure_result_value_qualifier,KD_PAR,KD_PAR_result_value_qualifier,Turbidity,Turbidity_result_value_qualifier
Niaqungu_Lake,2022-05-05 15:45,-86.842331,66.616968,2,0.0089,,0.69,,20.282,,,,13.3,
Niaqungu_Lake,2022-05-05 16:00,-86.842331,66.616968,2,0.0095,,0.69,,20.286,,,,14,
Niaqungu_Lake,2022-05-05 16:15,-86.842331,66.616968,2,0.0111,,0.69,,20.287,,,,16,
Niaqungu_Lake,2022-05-05 16:30,-86.842331,66.616968,2,0.0135,,0.69,,20.289,,,,18.8,
Niaqungu_Lake,2022-05-05 16:45,-86.842331,66.616968,2,0.0091,,0.69,,20.29,,,,13.5,
Niaqungu_Lake,2022-05-05 17:00,-86.842331,66.616968,2,0.0111,,0.69,,20.29,,,,15.9,
Niaqungu_Lake,2022-05-05 17:15,-86.842331,66.616968,2,0.0105,,0.69,,20.287,,,,15.3,
Niaqungu_Lake,2022-05-05 17:30,-86.842331,66.616968,2,0.0093,,0.69,,20.286,,,,13.8,
Niaqungu_Lake,2022-05-05 17:45,-86.842331,66.616968,2,0.0092,,0.69,,20.285,,,,13.7,
Niaqungu_Lake,2022-05-05 18:00,-86.842331,66.616968,2,0.0088,,0.69,,20.284,,,,13.2,
Niaqungu_Lake,2022-05-05 18:15,-86.842331,66.616968,2,0.0088,,0.69,,20.283,,,,13.2,
Niaqungu_Lake,2022-05-05 18:30,-86.842331,66.616968,2,0.0089,,0.69,,20.281,,,,13.3,
Niaqungu_Lake,2022-05-05 18:45,-86.842331,66.616968,2,0.0089,,0.69,,20.278,,,,13.4,
Niaqungu_Lake,2022-05-05 19:00,-86.842331,66.616968,2,0.009,,0.69,,20.277,,,,13.5,
Niaqungu_Lake,2022-05-05 19:15,-86.842331,66.616968,2,0.009,,0.69,,20.277,,,,13.4,
Niaqungu_Lake,2022-05-05 19:30,-86.842331,66.616968,2,0.0088,,0.69,,20.275,,,,13.2,
Niaqungu_Lake,2022-05-05 19:45,-86.842331,66.616968,2,0.0088,,0.69,,20.278,,,,13.2,
Niaqungu_Lake,2022-05-05 20:00,-86.842331,66.616968,2,0.0088,,0.69,,20.275,,,,13.2,
Niaqungu_Lake,2022-05-05 20:15,-86.842331,66.616968,2,0.0089,,0.69,,20.273,,,,13.3,
Niaqungu_Lake,2022-05-05 20:30,-86.842331,66.616968,2,0.0091,,0.69,,20.271,,,,13.6,
Niaqungu_Lake,2022-05-05 20:45,-86.842331,66.616968,2,0.0099,,0.69,,20.269,,,,14.6,
Niaqungu_Lake,2022-05-05 21:00,-86.842331,66.616968,2,0.0096,,0.69,,20.266,,,,14.2,
Niaqungu_Lake,2022-05-05 21:15,-86.842331,66.616968,2,0.0094,,0.69,,20.265,,,,14,
Niaqungu_Lake,2022-05-05 21:30,-86.842331,66.616968,2,0.0092,,0.69,,20.265,,,,13.6,
Niaqungu_Lake,2022-05-05 21:45,-86.842331,66.616968,2,0.0097,,0.69,,20.264,,,,14.2,
Niaqungu_Lake,2022-05-05 22:00,-86.842331,66.616968,2,0.0091,,0.69,,20.26,,,,13.6,
Niaqungu_Lake,2022-05-05 22:15,-86.842331,66.616968,2,0.0094,,0.69,,20.258,,,,13.9,
Niaqungu_Lake,2022-05-05 22:30,-86.842331,66.616968,2,0.0093,,0.69,,20.257,,,,13.8,
Niaqungu_Lake,2022-05-05 22:45,-86.842331,66.616968,2,0.0097,,0.69,,20.255,,,,14.3,
Niaqungu_Lake,2022-05-05 23:00,-86.842331,66.616968,2,0.01,,0.69,,20.253,,,,14.6,
Niaqungu_Lake,2022-05-05 23:15,-86.842331,66.616968,2,0.0098,,0.69,,20.253,,,,14.4,
Niaqungu_Lake,2022-05-05 23:30,-86.842331,66.616968,2,0.01,,0.69,,20.253,,,,14.7,
Niaqungu_Lake,2022-05-05 23:45,-86.842331,66.616968,2,0.0098,,0.69,,20.252,,,,14.4,
Niaqungu_Lake,2022-05-06 0:00,-86.842331,66.616968,2,0.0092,,0.69,,20.25,,,,13.6,
Niaqungu_Lake,2022-05-06 0:15,-86.842331,66.616968,2,0.009,,0.69,,20.25,,,,13.4,
Niaqungu_Lake,2022-05-06 0:30,-86.842331,66.616968,2,0.009,,0.69,,20.247,,,,13.5,
Niaqungu_Lake,2022-05-06 0:45,-86.842331,66.616968,2,0.0091,,0.69,,20.247,,,,13.5,
Niaqungu_Lake,2022-05-06 1:00,-86.842331,66.616968,2,0.0092,,0.69,,20.243,,,,13.7,
Niaqungu_Lake,2022-05-06 1:15,-86.842331,66.616968,2,0.0093,,0.69,,20.243,,,,13.8,
Niaqungu_Lake,2022-05-06 1:30,-86.842331,66.616968,2,0.0095,,0.68,,20.242,,,,14,
Niaqungu_Lake,2022-05-06 1:45,-86.842331,66.616968,2,0.0096,,0.68,,20.239,,,,14.2,
Niaqungu_Lake,2022-05-06 2:00,-86.842331,66.616968,2,0.0088,,0.69,,20.239,,,,13.3,
Niaqungu_Lake,2022-05-06 2:15,-86.842331,66.616968,2,0.009,,0.68,,20.238,,,,13.4,
Niaqungu_Lake,2022-05-06 2:30,-86.842331,66.616968,2,0.0092,,0.69,,20.236,,,,13.6,
Niaqungu_Lake,2022-05-06 2:45,-86.842331,66.616968,2,0.0094,,0.69,,20.234,,,,14,
Niaqungu_Lake,2022-05-06 3:00,-86.842331,66.616968,2,0.0098,,0.69,,20.233,,,,14.4,
Niaqungu_Lake,2022-05-06 3:15,-86.842331,66.616968,2,0.0093,,0.69,,20.233,,,,13.8,
Niaqungu_Lake,2022-05-06 3:30,-86.842331,66.616968,2,0.0088,,0.68,,20.231,,,,13.2,
Niaqungu_Lake,2022-05-06 3:45,-86.842331,66.616968,2,0.0089,,0.68,,20.228,,,,13.3,
Niaqungu_Lake,2022-05-06 4:00,-86.842331,66.616968,2,0.0089,,0.69,,20.226,,,,13.3,
Niaqungu_Lake,2022-05-06 4:15,-86.842331,66.616968,2,0.009,,0.69,,20.226,,,,13.4,
Niaqungu_Lake,2022-05-06 4:30,-86.842331,66.616968,2,0.0088,,0.69,,20.224,,,,13.2,
Niaqungu_Lake,2022-05-06 4:45,-86.842331,66.616968,2,0.0088,,0.68,,20.223,,,,13.2,
Niaqungu_Lake,2022-05-06 5:00,-86.842331,66.616968,2,0.0088,,0.68,,20.22,,,,13.2,
Niaqungu_Lake,2022-05-06 5:15,-86.842331,66.616968,2,0.0088,,0.68,,20.218,,,,13.2,
Niaqungu_Lake,2022-05-06 5:30,-86.842331,66.616968,2,0.0088,,0.68,,20.217,,,,13.2,
Niaqungu_Lake,2022-05-06 5:45,-86.842331,66.616968,2,0.0088,,0.68,,20.213,,,,13.2,
Niaqungu_Lake,2022-05-06 6:00,-86.842331,66.616968,2,0.0088,,0.68,,20.21,,,,13.2,
Niaqungu_Lake,2022-05-06 6:15,-86.842331,66.616968,2,0.0088,,0.68,,20.21,,,,13.2,
Niaqungu_Lake,2022-05-06 6:30,-86.842331,66.616968,2,0.0088,,0.68,,20.209,,,,13.2,
Niaqungu_Lake,2022-05-06 6:45,-86.842331,66.616968,2,0.0088,,0.69,,20.21,,,,13.2,
Niaqungu_Lake,2022-05-06 7:00,-86.842331,66.616968,2,0.0088,,0.68,,20.207,,,,13.2,
Niaqungu_Lake,2022-05-06 7:15,-86.842331,66.616968,2,0.0088,,0.69,,20.204,,,,13.2,
Niaqungu_Lake,2022-05-06 7:30,-86.842331,66.616968,2,0.009,,0.69,,20.201,,,,13.4,
Niaqungu_Lake,2022-05-06 7:45,-86.842331,66.616968,2,0.0089,,0.69,,20.199,,,,13.3,
Niaqungu_Lake,2022-05-06 8:00,-86.842331,66.616968,2,0.009,,0.69,,20.196,,,,13.4,
Niaqungu_Lake,2022-05-06 8:15,-86.842331,66.616968,2,0.009,,0.69,,20.194,,,,13.4,
Niaqungu_Lake,2022-05-06 8:30,-86.842331,66.616968,2,0.009,,0.7,,20.192,,,,13.4,
Niaqungu_Lake,2022-05-06 8:45,-86.842331,66.616968,2,0.0091,,0.7,,20.189,,,,13.6,
Niaqungu_Lake,2022-05-06 9:00,-86.842331,66.616968,2,0.0089,,0.7,,20.183,,,,13.3,
Niaqungu_Lake,2022-05-06 9:15,-86.842331,66.616968,2,0.0089,,0.7,,20.183,,,,13.3,
Niaqungu_Lake,2022-05-06 9:30,-86.842331,66.616968,2,0.0089,,0.7,,20.182,,,,13.3,
Niaqungu_Lake,2022-05-06 9:45,-86.842331,66.616968,2,0.0089,,0.7,,20.179,,,,13.3,
Niaqungu_Lake,2022-05-06 10:00,-86.842331,66.616968,2,0.0089,,0.69,,20.179,,,,13.3,
Niaqungu_Lake,2022-05-06 10:15,-86.842331,66.616968,2,0.009,,0.69,,20.176,,,,13.5,
Niaqungu_Lake,2022-05-06 10:30,-86.842331,66.616968,2,0.0093,,0.69,,20.175,,,,13.8,
Niaqungu_Lake,2022-05-06 10:45,-86.842331,66.616968,2,0.0095,,0.69,,20.173,,,,14.1,
Niaqungu_Lake,2022-05-06 11:00,-86.842331,66.616968,2,0.0088,,0.69,,20.172,,,,13.2,
Niaqungu_Lake,2022-05-06 11:15,-86.842331,66.616968,2,0.0093,,0.69,,20.168,,,,13.8,
Niaqungu_Lake,2022-05-06 11:30,-86.842331,66.616968,2,0.009,,0.69,,20.167,,,,13.4,
Niaqungu_Lake,2022-05-06 11:45,-86.842331,66.616968,2,0.0088,,0.69,,20.165,,,,13.2,
Niaqungu_Lake,2022-05-06 12:00,-86.842331,66.616968,2,0.0089,,0.69,,20.163,,,,13.3,
Niaqungu_Lake,2022-05-06 12:15,-86.842331,66.616968,2,0.0091,,0.69,,20.164,,,,13.5,
Niaqungu_Lake,2022-05-06 12:30,-86.842331,66.616968,2,0.0089,,0.69,,20.162,,,,13.3,
Niaqungu_Lake,2022-05-06 12:45,-86.842331,66.616968,2,0.0088,,0.69,,20.157,,,,13.2,
Niaqungu_Lake,2022-05-06 13:00,-86.842331,66.616968,2,0.0089,,0.69,,20.154,,,,13.3,
Niaqungu_Lake,2022-05-06 13:15,-86.842331,66.616968,2,0.0092,,0.68,,20.15,,,,13.6,
Niaqungu_Lake,2022-05-06 13:30,-86.842331,66.616968,2,0.0092,,0.68,,20.148,,,,13.7,
Niaqungu_Lake,2022-05-06 13:45,-86.842331,66.616968,2,0.0094,,0.68,,20.149,,,,13.9,
Niaqungu_Lake,2022-05-06 14:00,-86.842331,66.616968,2,0.0088,,0.68,,20.148,,,,13.1,
Niaqungu_Lake,2022-05-06 14:15,-86.842331,66.616968,2,0.0088,,0.68,,20.147,,,,13.2,
Niaqungu_Lake,2022-05-06 14:30,-86.842331,66.616968,2,0.0088,,0.68,,20.142,,,,13.3,
Niaqungu_Lake,2022-05-06 14:45,-86.842331,66.616968,2,0.0092,,0.69,,20.144,,,,13.7,
Niaqungu_Lake,2022-05-06 15:00,-86.842331,66.616968,2,0.0093,,0.68,,20.144,,,,13.8,
Niaqungu_Lake,2022-05-06 15:15,-86.842331,66.616968,2,0.0092,,0.69,,20.141,,,,13.6,
Niaqungu_Lake,2022-05-06 15:30,-86.842331,66.616968,2,0.0088,,0.69,,20.138,,,,13.2,
Niaqungu_Lake,2022-05-06 15:45,-86.842331,66.616968,2,0.0088,,0.69,,20.137,,,,13.2,
Niaqungu_Lake,2022-05-06 16:00,-86.842331,66.616968,2,0.0088,,0.69,,20.139,,,,13.2,
Niaqungu_Lake,2022-05-06 16:15,-86.842331,66.616968,2,0.0088,,0.69,,20.137,,,,13.2,
Niaqungu_Lake,2022-05-06 16:30,-86.842331,66.616968,2,0.009,,0.69,,20.137,,,,13.4,
Niaqungu_Lake,2022-05-06 16:45,-86.842331,66.616968,2,0.0089,,0.69,,20.134,,,,13.4,
Niaqungu_Lake,2022-05-06 17:00,-86.842331,66.616968,2,0.0089,,0.69,,20.134,,,,13.3,
Niaqungu_Lake,2022-05-06 17:15,-86.842331,66.616968,2,0.0089,,0.69,,20.131,,,,13.3,
Niaqungu_Lake,2022-05-06 17:30,-86.842331,66.616968,2,0.0088,,0.69,,20.132,,,,13.2,
Niaqungu_Lake,2022-05-06 17:45,-86.842331,66.616968,2,0.0088,,0.69,,20.131,,,,13.2,
Niaqungu_Lake,2022-05-06 18:00,-86.842331,66.616968,2,0.0088,,0.7,,20.13,,,,13.2,
Niaqungu_Lake,2022-05-06 18:15,-86.842331,66.616968,2,0.0088,,0.7,,20.128,,,,13.2,
Niaqungu_Lake,2022-05-06 18:30,-86.842331,66.616968,2,0.0089,,0.7,,20.127,,,,13.3,
Niaqungu_Lake,2022-05-06 18:45,-86.842331,66.616968,2,0.0089,,0.7,,20.126,,,,13.3,
Niaqungu_Lake,2022-05-06 19:00,-86.842331,66.616968,2,0.0089,,0.7,,20.125,,,,13.3,
Niaqungu_Lake,2022-05-06 19:15,-86.842331,66.616968,2,0.0088,,0.7,,20.125,,,,13.2,
Niaqungu_Lake,2022-05-06 19:30,-86.842331,66.616968,2,0.0089,,0.7,,20.126,,,,13.3,
Niaqungu_Lake,2022-05-06 19:45,-86.842331,66.616968,2,0.0089,,0.7,,20.124,,,,13.3,
Niaqungu_Lake,2022-05-06 20:00,-86.842331,66.616968,2,0.009,,0.7,,20.124,,,,13.4,
Niaqungu_Lake,2022-05-06 20:15,-86.842331,66.616968,2,0.009,,0.7,,20.124,,,,13.5,
Niaqungu_Lake,2022-05-06 20:30,-86.842331,66.616968,2,0.009,,0.7,,20.12,,,,13.5,
Niaqungu_Lake,2022-05-06 20:45,-86.842331,66.616968,2,0.009,,0.7,,20.121,,,,13.5,
Niaqungu_Lake,2022-05-06 21:00,-86.842331,66.616968,2,0.009,,0.7,,20.117,,,,13.4,
Niaqungu_Lake,2022-05-06 21:15,-86.842331,66.616968,2,0.0089,,0.7,,20.115,,,,13.3,
Niaqungu_Lake,2022-05-06 21:30,-86.842331,66.616968,2,0.0089,,0.7,,20.116,,,,13.3,
Niaqungu_Lake,2022-05-06 21:45,-86.842331,66.616968,2,0.0089,,0.7,,20.115,,,,13.3,
Niaqungu_Lake,2022-05-06 22:00,-86.842331,66.616968,2,0.0089,,0.7,,20.116,,,,13.3,
Niaqungu_Lake,2022-05-06 22:15,-86.842331,66.616968,2,0.009,,0.7,,20.112,,,,13.4,
Niaqungu_Lake,2022-05-06 22:30,-86.842331,66.616968,2,0.0089,,0.7,,20.114,,,,13.3,
Niaqungu_Lake,2022-05-06 22:45,-86.842331,66.616968,2,0.0089,,0.7,,20.114,,,,13.3,
Niaqungu_Lake,2022-05-06 23:00,-86.842331,66.616968,2,0.0089,,0.7,,20.114,,,,13.3,
Niaqungu_Lake,2022-05-06 23:15,-86.842331,66.616968,2,0.009,,0.7,,20.115,,,,13.4,
Niaqungu_Lake,2022-05-06 23:30,-86.842331,66.616968,2,0.009,,0.7,,20.114,,,,13.4,
Niaqungu_Lake,2022-05-06 23:45,-86.842331,66.616968,2,0.009,,0.7,,20.111,,,,13.4,
Niaqungu_Lake,2022-05-07 0:00,-86.842331,66.616968,2,0.0089,,0.7,,20.11,,,,13.3,
Niaqungu_Lake,2022-05-07 0:15,-86.842331,66.616968,2,0.009,,0.7,,20.108,,,,13.4,
Niaqungu_Lake,2022-05-07 0:30,-86.842331,66.616968,2,0.0093,,0.7,,20.108,,,,13.8,
Niaqungu_Lake,2022-05-07 0:45,-86.842331,66.616968,2,0.0089,,0.7,,20.109,,,,13.3,
Niaqungu_Lake,2022-05-07 1:00,-86.842331,66.616968,2,0.0089,,0.69,,20.108,,,,13.3,
Niaqungu_Lake,2022-05-07 1:15,-86.842331,66.616968,2,0.0092,,0.7,,20.108,,,,13.7,
Niaqungu_Lake,2022-05-07 1:30,-86.842331,66.616968,2,0.009,,0.7,,20.107,,,,13.5,
Niaqungu_Lake,2022-05-07 1:45,-86.842331,66.616968,2,0.0091,,0.7,,20.106,,,,13.5,
Niaqungu_Lake,2022-05-07 2:00,-86.842331,66.616968,2,0.0089,,0.7,,20.107,,,,13.4,
Niaqungu_Lake,2022-05-07 2:15,-86.842331,66.616968,2,0.009,,0.7,,20.106,,,,13.4,
Niaqungu_Lake,2022-05-07 2:30,-86.842331,66.616968,2,0.009,,0.7,,20.105,,,,13.4,
Niaqungu_Lake,2022-05-07 2:45,-86.842331,66.616968,2,0.009,,0.7,,20.106,,,,13.4,
Niaqungu_Lake,2022-05-07 3:00,-86.842331,66.616968,2,0.0089,,0.7,,20.105,,,,13.3,
Niaqungu_Lake,2022-05-07 3:15,-86.842331,66.616968,2,0.0089,,0.7,,20.104,,,,13.3,
Niaqungu_Lake,2022-05-07 3:30,-86.842331,66.616968,2,0.0089,,0.7,,20.106,,,,13.3,
Niaqungu_Lake,2022-05-07 3:45,-86.842331,66.616968,2,0.0089,,0.7,,20.106,,,,13.3,
Niaqungu_Lake,2022-05-07 4:00,-86.842331,66.616968,2,0.0089,,0.7,,20.106,,,,13.3,
Niaqungu_Lake,2022-05-07 4:15,-86.842331,66.616968,2,0.0089,,0.7,,20.106,,,,13.4,
Niaqungu_Lake,2022-05-07 4:30,-86.842331,66.616968,2,0.0089,,0.7,,20.106,,,,13.4,
Niaqungu_Lake,2022-05-07 4:45,-86.842331,66.616968,2,0.0089,,0.7,,20.105,,,,13.4,
Niaqungu_Lake,2022-05-07 5:00,-86.842331,66.616968,2,0.0089,,0.7,,20.104,,,,13.3,
Niaqungu_Lake,2022-05-07 5:15,-86.842331,66.616968,2,0.0089,,0.7,,20.105,,,,13.3,
Niaqungu_Lake,2022-05-07 5:30,-86.842331,66.616968,2,0.0089,,0.7,,20.105,,,,13.3,
Niaqungu_Lake,2022-05-07 5:45,-86.842331,66.616968,2,0.009,,0.7,,20.104,,,,13.4,
Niaqungu_Lake,2022-05-07 6:00,-86.842331,66.616968,2,0.009,,0.7,,20.102,,,,13.4,
Niaqungu_Lake,2022-05-07 6:15,-86.842331,66.616968,2,0.009,,0.7,,20.101,,,,13.4,
Niaqungu_Lake,2022-05-07 6:30,-86.842331,66.616968,2,0.009,,0.7,,20.101,,,,13.4,
Niaqungu_Lake,2022-05-07 6:45,-86.842331,66.616968,2,0.009,,0.7,,20.099,,,,13.4,
Niaqungu_Lake,2022-05-07 7:00,-86.842331,66.616968,2,0.0089,,0.7,,20.1,,,,13.3,
Niaqungu_Lake,2022-05-07 7:15,-86.842331,66.616968,2,0.0089,,0.7,,20.102,,,,13.4,
Niaqungu_Lake,2022-05-07 7:30,-86.842331,66.616968,2,0.009,,0.7,,20.103,,,,13.4,
Niaqungu_Lake,2022-05-07 7:45,-86.842331,66.616968,2,0.009,,0.7,,20.102,,,,13.4,
Niaqungu_Lake,2022-05-07 8:00,-86.842331,66.616968,2,0.009,,0.7,,20.1,,,,13.4,
Niaqungu_Lake,2022-05-07 8:15,-86.842331,66.616968,2,0.0089,,0.7,,20.1,,,,13.3,
Niaqungu_Lake,2022-05-07 8:30,-86.842331,66.616968,2,0.0089,,0.7,,20.099,,,,13.3,
Niaqungu_Lake,2022-05-07 8:45,-86.842331,66.616968,2,0.0089,,0.71,,20.1,,,,13.3,
Niaqungu_Lake,2022-05-07 9:00,-86.842331,66.616968,2,0.009,,0.7,,20.098,,,,13.5,
Niaqungu_Lake,2022-05-07 9:15,-86.842331,66.616968,2,0.0089,,0.7,,20.097,,,,13.3,
Niaqungu_Lake,2022-05-07 9:30,-86.842331,66.616968,2,0.0089,,0.7,,20.098,,,,13.3,
Niaqungu_Lake,2022-05-07 9:45,-86.842331,66.616968,2,0.0091,,0.71,,20.098,,,,13.5,
Niaqungu_Lake,2022-05-07 10:00,-86.842331,66.616968,2,0.0089,,0.7,,20.098,,,,13.3,
Niaqungu_Lake,2022-05-07 10:15,-86.842331,66.616968,2,0.0089,,0.7,,20.099,,,,13.3,
Niaqungu_Lake,2022-05-07 10:30,-86.842331,66.616968,2,0.0089,,0.71,,20.099,,,,13.3,
Niaqungu_Lake,2022-05-07 10:45,-86.842331,66.616968,2,0.0089,,0.7,,20.098,,,,13.3,
Niaqungu_Lake,2022-05-07 11:00,-86.842331,66.616968,2,0.0089,,0.7,,20.099,,,,13.3,
Niaqungu_Lake,2022-05-07 11:15,-86.842331,66.616968,2,0.0089,,0.7,,20.098,,,,13.3,
Niaqungu_Lake,2022-05-07 11:30,-86.842331,66.616968,2,0.0089,,0.71,,20.097,,,,13.4,
Niaqungu_Lake,2022-05-07 11:45,-86.842331,66.616968,2,0.0089,,0.71,,20.099,,,,13.3,
Niaqungu_Lake,2022-05-07 12:00,-86.842331,66.616968,2,0.0089,,0.7,,20.098,,,,13.3,
Niaqungu_Lake,2022-05-07 12:15,-86.842331,66.616968,2,0.0089,,0.71,,20.099,,,,13.3,
Niaqungu_Lake,2022-05-07 12:30,-86.842331,66.616968,2,0.0089,,0.71,,20.099,,,,13.3,
Niaqungu_Lake,2022-05-07 12:45,-86.842331,66.616968,2,0.0089,,0.71,,20.099,,,,13.3,
Niaqungu_Lake,2022-05-07 13:00,-86.842331,66.616968,2,0.0089,,0.71,,20.1,,,,13.3,
Niaqungu_Lake,2022-05-07 13:15,-86.842331,66.616968,2,0.0089,,0.71,,20.1,,,,13.3,
Niaqungu_Lake,2022-05-07 13:30,-86.842331,66.616968,2,0.0089,,0.71,,20.101,,,,13.3,
Niaqungu_Lake,2022-05-07 13:45,-86.842331,66.616968,2,0.0089,,0.71,,20.105,,,,13.3,
Niaqungu_Lake,2022-05-07 14:00,-86.842331,66.616968,2,0.0089,,0.71,,20.105,,,,13.3,
Niaqungu_Lake,2022-05-07 14:15,-86.842331,66.616968,2,0.0089,,0.71,,20.104,,,,13.3,
Niaqungu_Lake,2022-05-07 14:30,-86.842331,66.616968,2,0.0089,,0.71,,20.105,,,,13.3,
Niaqungu_Lake,2022-05-07 14:45,-86.842331,66.616968,2,0.0089,,0.71,,20.106,,,,13.3,
Niaqungu_Lake,2022-05-07 15:00,-86.842331,66.616968,2,0.0089,,0.71,,20.106,,,,13.3,
Niaqungu_Lake,2022-05-07 15:15,-86.842331,66.616968,2,0.009,,0.71,,20.107,,,,13.4,
Niaqungu_Lake,2022-05-07 15:30,-86.842331,66.616968,2,0.0091,,0.71,,20.109,,,,13.5,
Niaqungu_Lake,2022-05-07 15:45,-86.842331,66.616968,2,0.009,,0.71,,20.109,,,,13.4,
Niaqungu_Lake,2022-05-07 16:00,-86.842331,66.616968,2,0.0091,,0.71,,20.107,,,,13.6,
Niaqungu_Lake,2022-05-07 16:15,-86.842331,66.616968,2,0.0089,,0.71,,20.109,,,,13.3,
Niaqungu_Lake,2022-05-07 16:30,-86.842331,66.616968,2,0.0089,,0.71,,20.11,,,,13.4,
Niaqungu_Lake,2022-05-07 16:45,-86.842331,66.616968,2,0.009,,0.71,,20.107,,,,13.5,
Niaqungu_Lake,2022-05-07 17:00,-86.842331,66.616968,2,0.0089,,0.71,,20.106,,,,13.3,
Niaqungu_Lake,2022-05-07 17:15,-86.842331,66.616968,2,0.009,,0.71,,20.109,,,,13.4,
Niaqungu_Lake,2022-05-07 17:30,-86.842331,66.616968,2,0.009,,0.71,,20.109,,,,13.5,
Niaqungu_Lake,2022-05-07 17:45,-86.842331,66.616968,2,0.0091,,0.71,,20.108,,,,13.6,
Niaqungu_Lake,2022-05-07 18:00,-86.842331,66.616968,2,0.009,,0.71,,20.111,,,,13.4,
Niaqungu_Lake,2022-05-07 18:15,-86.842331,66.616968,2,0.009,,0.71,,20.111,,,,13.4,
Niaqungu_Lake,2022-05-07 18:30,-86.842331,66.616968,2,0.009,,0.71,,20.111,,,,13.4,
Niaqungu_Lake,2022-05-07 18:45,-86.842331,66.616968,2,0.0092,,0.71,,20.11,,,,13.6,
Niaqungu_Lake,2022-05-07 19:00,-86.842331,66.616968,2,0.009,,0.71,,20.112,,,,13.4,
Niaqungu_Lake,2022-05-07 19:15,-86.842331,66.616968,2,0.009,,0.71,,20.112,,,,13.4,
Niaqungu_Lake,2022-05-07 19:30,-86.842331,66.616968,2,0.009,,0.71,,20.114,,,,13.4,
Niaqungu_Lake,2022-05-07 19:45,-86.842331,66.616968,2,0.0092,,0.71,,20.115,,,,13.7,
Niaqungu_Lake,2022-05-07 20:00,-86.842331,66.616968,2,0.009,,0.71,,20.115,,,,13.5,
Niaqungu_Lake,2022-05-07 20:15,-86.842331,66.616968,2,0.0093,,0.71,,20.116,,,,13.8,
Niaqungu_Lake,2022-05-07 20:30,-86.842331,66.616968,2,0.009,,0.71,,20.115,,,,13.4,
Niaqungu_Lake,2022-05-07 20:45,-86.842331,66.616968,2,0.0091,,0.71,,20.116,,,,13.6,
Niaqungu_Lake,2022-05-07 21:00,-86.842331,66.616968,2,0.0091,,0.71,,20.116,,,,13.5,
Niaqungu_Lake,2022-05-07 21:15,-86.842331,66.616968,2,0.0089,,0.71,,20.117,,,,13.4,
Niaqungu_Lake,2022-05-07 21:30,-86.842331,66.616968,2,0.0089,,0.71,,20.116,,,,13.3,
Niaqungu_Lake,2022-05-07 21:45,-86.842331,66.616968,2,0.0089,,0.71,,20.117,,,,13.4,
Niaqungu_Lake,2022-05-07 22:00,-86.842331,66.616968,2,0.0089,,0.71,,20.118,,,,13.3,
Niaqungu_Lake,2022-05-07 22:15,-86.842331,66.616968,2,0.0089,,0.71,,20.116,,,,13.3,
Niaqungu_Lake,2022-05-07 22:30,-86.842331,66.616968,2,0.0089,,0.71,,20.116,,,,13.3,
Niaqungu_Lake,2022-05-07 22:45,-86.842331,66.616968,2,0.0089,,0.71,,20.115,,,,13.3,
Niaqungu_Lake,2022-05-07 23:00,-86.842331,66.616968,2,0.0089,,0.71,,20.115,,,,13.4,
Niaqungu_Lake,2022-05-07 23:15,-86.842331,66.616968,2,0.0089,,0.71,,20.117,,,,13.4,
Niaqungu_Lake,2022-05-07 23:30,-86.842331,66.616968,2,0.0089,,0.71,,20.116,,,,13.4,
Niaqungu_Lake,2022-05-07 23:45,-86.842331,66.616968,2,0.0089,,0.71,,20.115,,,,13.4,
Niaqungu_Lake,2022-05-08 0:00,-86.842331,66.616968,2,0.0089,,0.71,,20.117,,,,13.3,
Niaqungu_Lake,2022-05-08 0:15,-86.842331,66.616968,2,0.0089,,0.71,,20.117,,,,13.3,
Niaqungu_Lake,2022-05-08 0:30,-86.842331,66.616968,2,0.0089,,0.71,,20.119,,,,13.3,
Niaqungu_Lake,2022-05-08 0:45,-86.842331,66.616968,2,0.0089,,0.7,,20.119,,,,13.3,
Niaqungu_Lake,2022-05-08 1:00,-86.842331,66.616968,2,0.009,,0.7,,20.123,,,,13.4,
Niaqungu_Lake,2022-05-08 1:15,-86.842331,66.616968,2,0.0089,,0.7,,20.123,,,,13.3,
Niaqungu_Lake,2022-05-08 1:30,-86.842331,66.616968,2,0.0089,,0.7,,20.122,,,,13.3,
Niaqungu_Lake,2022-05-08 1:45,-86.842331,66.616968,2,0.0089,,0.7,,20.123,,,,13.3,
Niaqungu_Lake,2022-05-08 2:00,-86.842331,66.616968,2,0.0089,,0.7,,20.125,,,,13.3,
Niaqungu_Lake,2022-05-08 2:15,-86.842331,66.616968,2,0.0089,,0.7,,20.126,,,,13.3,
Niaqungu_Lake,2022-05-08 2:30,-86.842331,66.616968,2,0.0089,,0.69,,20.127,,,,13.3,
Niaqungu_Lake,2022-05-08 2:45,-86.842331,66.616968,2,0.0089,,0.69,,20.129,,,,13.3,
Niaqungu_Lake,2022-05-08 3:00,-86.842331,66.616968,2,0.0093,,0.68,,20.13,,,,13.9,
Niaqungu_Lake,2022-05-08 3:15,-86.842331,66.616968,2,0.0092,,0.68,,20.131,,,,13.6,
Niaqungu_Lake,2022-05-08 3:30,-86.842331,66.616968,2,0.0094,,0.68,,20.133,,,,13.9,
Niaqungu_Lake,2022-05-08 3:45,-86.842331,66.616968,2,0.0089,,0.68,,20.136,,,,13.3,
Niaqungu_Lake,2022-05-08 4:00,-86.842331,66.616968,2,0.0089,,0.68,,20.137,,,,13.3,
Niaqungu_Lake,2022-05-08 4:15,-86.842331,66.616968,2,0.0089,,0.68,,20.141,,,,13.3,
Niaqungu_Lake,2022-05-08 4:30,-86.842331,66.616968,2,0.0089,,0.68,,20.143,,,,13.3,
Niaqungu_Lake,2022-05-08 4:45,-86.842331,66.616968,2,0.0089,,0.68,,20.144,,,,13.3,
Niaqungu_Lake,2022-05-08 5:00,-86.842331,66.616968,2,0.0089,,0.68,,20.146,,,,13.3,
Niaqungu_Lake,2022-05-08 5:15,-86.842331,66.616968,2,0.0088,,0.68,,20.146,,,,13.3,
Niaqungu_Lake,2022-05-08 5:30,-86.842331,66.616968,2,0.0088,,0.68,,20.146,,,,13.3,
Niaqungu_Lake,2022-05-08 5:45,-86.842331,66.616968,2,0.0089,,0.68,,20.145,,,,13.3,
Niaqungu_Lake,2022-05-08 6:00,-86.842331,66.616968,2,0.0089,,0.68,,20.147,,,,13.3,
Niaqungu_Lake,2022-05-08 6:15,-86.842331,66.616968,2,0.0089,,0.68,,20.148,,,,13.3,
Niaqungu_Lake,2022-05-08 6:30,-86.842331,66.616968,2,0.0089,,0.68,,20.147,,,,13.3,
Niaqungu_Lake,2022-05-08 6:45,-86.842331,66.616968,2,0.0088,,0.68,,20.15,,,,13.3,
Niaqungu_Lake,2022-05-08 7:00,-86.842331,66.616968,2,0.0088,,0.68,,20.15,,,,13.3,
Niaqungu_Lake,2022-05-08 7:15,-86.842331,66.616968,2,0.0088,,0.67,,20.15,,,,13.3,
Niaqungu_Lake,2022-05-08 7:30,-86.842331,66.616968,2,0.0088,,0.67,,20.15,,,,13.2,
Niaqungu_Lake,2022-05-08 7:45,-86.842331,66.616968,2,0.0088,,0.68,,20.148,,,,13.3,
Niaqungu_Lake,2022-05-08 8:00,-86.842331,66.616968,2,0.0088,,0.68,,20.151,,,,13.3,
Niaqungu_Lake,2022-05-08 8:15,-86.842331,66.616968,2,0.0088,,0.68,,20.151,,,,13.3,
Niaqungu_Lake,2022-05-08 8:30,-86.842331,66.616968,2,0.0088,,0.68,,20.15,,,,13.3,
Niaqungu_Lake,2022-05-08 8:45,-86.842331,66.616968,2,0.0088,,0.68,,20.152,,,,13.3,
Niaqungu_Lake,2022-05-08 9:00,-86.842331,66.616968,2,0.0088,,0.68,,20.154,,,,13.3,
Niaqungu_Lake,2022-05-08 9:15,-86.842331,66.616968,2,0.0089,,0.68,,20.153,,,,13.3,
Niaqungu_Lake,2022-05-08 9:30,-86.842331,66.616968,2,0.0089,,0.68,,20.157,,,,13.3,
Niaqungu_Lake,2022-05-08 9:45,-86.842331,66.616968,2,0.0089,,0.69,,20.154,,,,13.3,
Niaqungu_Lake,2022-05-08 10:00,-86.842331,66.616968,2,0.0089,,0.69,,20.155,,,,13.3,
Niaqungu_Lake,2022-05-08 10:15,-86.842331,66.616968,2,0.0089,,0.69,,20.152,,,,13.3,
Niaqungu_Lake,2022-05-08 10:30,-86.842331,66.616968,2,0.0088,,0.7,,20.152,,,,13.2,
Niaqungu_Lake,2022-05-08 10:45,-86.842331,66.616968,2,0.0089,,0.7,,20.151,,,,13.3,
Niaqungu_Lake,2022-05-08 11:00,-86.842331,66.616968,2,0.0089,,0.7,,20.154,,,,13.3,
Niaqungu_Lake,2022-05-08 11:15,-86.842331,66.616968,2,0.0089,,0.71,,20.156,,,,13.3,
Niaqungu_Lake,2022-05-08 11:30,-86.842331,66.616968,2,0.0089,,0.71,,20.153,,,,13.3,
Niaqungu_Lake,2022-05-08 11:45,-86.842331,66.616968,2,0.0089,,0.71,,20.153,,,,13.3,
Niaqungu_Lake,2022-05-08 12:00,-86.842331,66.616968,2,0.0089,,0.71,,20.154,,,,13.3,
Niaqungu_Lake,2022-05-08 12:15,-86.842331,66.616968,2,0.0089,,0.71,,20.157,,,,13.3,
Niaqungu_Lake,2022-05-08 12:30,-86.842331,66.616968,2,0.0089,,0.71,,20.158,,,,13.3,
Niaqungu_Lake,2022-05-08 12:45,-86.842331,66.616968,2,0.0089,,0.7,,20.16,,,,13.3,
Niaqungu_Lake,2022-05-08 13:00,-86.842331,66.616968,2,0.0089,,0.7,,20.166,,,,13.3,
Niaqungu_Lake,2022-05-08 13:15,-86.842331,66.616968,2,0.0089,,0.7,,20.167,,,,13.3,
Niaqungu_Lake,2022-05-08 13:30,-86.842331,66.616968,2,0.0089,,0.7,,20.168,,,,13.3,
Niaqungu_Lake,2022-05-08 13:45,-86.842331,66.616968,2,0.0089,,0.71,,20.169,,,,13.3,
Niaqungu_Lake,2022-05-08 14:00,-86.842331,66.616968,2,0.0089,,0.71,,20.173,,,,13.3,